Location: Dresden
(51.0500°N, 13.7500°E)
Time: 00:30:17
(UTC+00:00)

ISS - Pass Details

Date: 01 April 2019
Orbit: 408 x 410 km, 51.6° (Epoch: 24 April)

Event Time Altitude Azimuth Distance (km) Brightness Sun altitude
Rises 18:09:30 0° 276° (W) 2,339 2.3 -5.8°
Reaches altitude 10° 18:11:35 10° 277° (W) 1,477 0.8 -6.1°
Maximum altitude 18:14:54 81° 4° (N) 420 -3.7 -6.6°
Drops below altitude 10° 18:18:13 10° 93° (E) 1,474 -1.6 -7.1°
Enters shadow 18:18:23 - 93° (E) 1,545 -1.5 -7.1°
